Left ArrowRight Arrow

30.21309, -93.2044

Hourly Observations for June 18, 2024

Temp ( °F °C ) Dew Point ( °F °C ) Humidity (%) Winds ( mph kmh ) Pressure ( in mb ) Visibility ( mi km ) Precip ( " mm )
12:15 am 00:15 Clear 76 24.7 73 22.5 88 88 ENE 7 11 29.92 1013 10 16 0.00 0.00
12:35 am 00:35 Clear 76 24.7 73 22.6 88 88 ENE 6 9 29.91 1013 10 16 0.00 0.00
12:55 am 00:55 Clear 76 24.6 73 22.6 89 89 NE 5 7 29.91 1013 10 16 0.00 0.00
1:15 am 01:15 Mostly Cloudy 75 24 73 23 94 94 ENE 7 11 29.90 1013 10 16 0.00 0.00
1:55 am 01:55 Mostly Cloudy 76 24.2 73 22.7 91 91 E 7 11 29.90 1013 10 16 0.00 0.00
2:15 am 02:15 Partly Cloudy 75 24.1 73 22.7 92 92 E 5 7 29.89 1012 10 16 0.00 0.00
2:35 am 02:35 Mostly Cloudy 76 24.2 73 22.9 92 92 E 5 7 29.88 1012 10 16 0.00 0.00
2:55 am 02:55 Cloudy 76 24.2 73 22.9 92 92 ENE 3 6 29.88 1012 10 16 0.00 0.00
3:15 am 03:15 Cloudy 76 24.3 74 23.1 93 93 E 8 13 29.87 1011 10 16 0.00 0.00
3:35 am 03:35 Cloudy 76 24.5 74 23.2 92 92 E 8 13 29.86 1011 10 16 0.00 0.00
3:55 am 03:55 Partly Cloudy 76 24.6 74 23.2 92 92 E 6 9 29.85 1011 10 16 0.00 0.00
4:15 am 04:15 Clear 76 24.7 74 23.2 91 91 ENE 3 6 29.85 1011 10 16 0.00 0.00
4:35 am 04:35 Partly Cloudy 77 24.8 74 23.2 91 91 NE 5 7 29.85 1011 10 16 0.00 0.00
4:55 am 04:55 Clear 77 24.8 74 23.2 91 91 NE 3 6 29.85 1011 10 16 0.00 0.00
5:15 am 05:15 Clear 77 24.8 74 23.2 91 91 NE 5 7 29.86 1011 10 16 0.00 0.00
5:35 am 05:35 Clear 76 24.7 74 23.2 91 91 ENE 7 11 29.86 1011 10 16 0.00 0.00
6:00 am 06:00 Mostly Cloudy 75 24 73 23 94 94 ENE 5 7 29.87 1011 10 16 0.00 0.00
6:47 am 06:47 Mostly Cloudy 77 25 73 23 89 89 ENE 8 13 29.87 1011 10 16 0.00 0.00
7:55 am 07:55 Mostly Cloudy 79 26 73 23 84 84 ENE 14 22 29.88 1012 10 16 0.00 0.00
9:45 am 09:45 Partly Cloudy 81 27 75 24 84 84 ENE 14 22 29.89 1012 10 16 0.00 0.00
11:47 am 11:47 Mostly Cloudy 81 27 75 24 84 84 ENE 14 22 29.89 1012 10 16 0.00 0.00
12:46 pm 12:46 Cloudy 84 29 75 24 74 74 E 15 24 29.89 1012 10 16 0.00 0.00
1:55 pm 13:55 Mostly Cloudy 84 29 73 23 70 70 E 14 22 29.90 1013 10 16 0.00 0.00
2:54 pm 14:54 Mostly Cloudy 82 28 75 24 79 79 ESE 14 22 29.89 1012 10 16 0.00 0.00
3:51 pm 15:51 Partly Cloudy 81 27 72 22 74 74 ESE 13 20 29.89 1012 10 16 0.00 0.00
4:47 pm 16:47 Mostly Cloudy with Light Rain 79 26 75 24 89 89 ENE 10 17 29.89 1012 6 10 0.00 0.00
5:55 pm 17:55 Mostly Cloudy with Light Rain 79 26 75 24 89 89 ENE 12 19 29.88 1012 6 10 0.00 0.00
6:52 pm 18:52 Mostly Cloudy with Light Rain 79 26 75 24 89 89 ENE 10 17 29.89 1012 6 10 0.00 0.00
7:54 pm 19:54 Mostly Cloudy with Light Rain 79 26 75 24 89 89 E 14 22 29.90 1013 6 10 0.00 0.00
8:50 pm 20:50 Mostly Cloudy with Light Rain 77 25 73 23 89 89 E 13 20 29.90 1013 6 10 0.00 0.00
9:54 pm 21:54 Mostly Cloudy with Light Rain 75 24 73 23 94 94 E 13 20 29.90 1013 6 10 0.00 0.00
10:15 pm 22:15 Cloudy with Light Rain 76 24.6 74 23.1 91 91 E 14 22 29.90 1013 10 16 0.00 0.00
10:35 pm 22:35 Partly Cloudy 76 24.7 73 23 90 90 E 14 22 29.90 1013 10 16 0.00 0.00
10:55 pm 22:55 Clear 76 24.7 73 23 90 90 E 13 20 29.90 1013 10 16 0.00 0.00
11:15 pm 23:15 Partly Cloudy 76 24.7 73 23 90 90 E 12 19 29.91 1013 10 16 0.00 0.00
11:35 pm 23:35 Clear 76 24.7 73 23 90 90 E 10 17 29.90 1013 10 16 0.00 0.00
11:55 pm 23:55 Clear 76 24.7 73 22.9 90 90 E 12 19 29.90 1013 10 16 0.00 0.00

Powered by Vaisala Xweather